Hourly Data Report for October 17, 2016

All times are specified in Local Standard Time (LST). Add 1 hour to adjust for Daylight Saving Time where and when it is observed.

ARVIAT A
NUNAVUT

61°05'38.000" N
94°04'18.000" W
10.40 m
2300427
71174
YEK

Related Data

No related data is available for this station

Download Data

Hourly Data (October 2016)
Hourly Data Report for October 17, 2016
Temp Definition
°C
Dew Point Temp Definition
°C
Rel Hum Definition
%
Wind Dir Definition
10's deg

Wind Spd Definition
km/h
Visibility Definition
km
Stn Press Definition
kPa
Hmdx Definition


Wind Chill Definition


Weather Definition


TIME
00:00 Legend Double Dagger -0.8 -3.2 84 12 21 16.1 101.78   -6 LegendNANA
01:00 Legend Double Dagger -0.3 -0.9 96 13 22 16.1 101.72   -6 LegendNANA
02:00 Legend Double Dagger 0.2 -0.5 95 12 24 16.1 101.65     LegendNANA
03:00 Legend Double Dagger 0.2 -1.0 92 20 13 16.1 101.63     LegendNANA
04:00 Legend Double Dagger 1.0 -2.8 76 16 21 16.1 101.58     LegendNANA
05:00 Legend Double Dagger 0.5 -0.1 96 17 17 16.1 101.54     LegendNANA
06:00 Legend Double Dagger 0.3 0.2 99 13 28 6.4 101.50     Snow
07:00 Legend Double Dagger 1.4 -0.7 86 16 35 16.1 101.49     LegendNANA
08:00 Legend Double Dagger 1.2 -2.7 75 15 35 16.1 101.48     LegendNANA
09:00 Legend Double Dagger 1.0 -2.6 77 15 35 16.1 101.49     LegendNANA
10:00 Legend Double Dagger 0.8 -2.0 81 13 22 16.1 101.55     LegendNANA
11:00 Legend Double Dagger 1.2 -2.7 76 14 34 16.1 101.51     LegendNANA
12:00 Legend Double Dagger 1.4 -2.4 76 13 28 16.1 101.49     LegendNANA
13:00 Legend Double Dagger 1.3 -1.3 83 13 32 16.1 101.47     LegendNANA
14:00 Legend Double Dagger 1.4 -1.9 79 13 35 16.1 101.43     LegendNANA
15:00 Legend Double Dagger 1.0 -0.9 87 12 39 16.1 101.41     Rain
16:00 Legend Double Dagger 0.9 -1.0 87 12 32 16.1 101.39     Rain
17:00 Legend Double Dagger 1.2 -1.2 84 11 35 16.1 101.38     LegendNANA
18:00 Legend Double Dagger 1.2 -1.1 85 11 32 16.1 101.38     LegendNANA
19:00 Legend Double Dagger 1.5 -2.3 76 11 37 16.1 101.39     LegendNANA
20:00 Legend Double Dagger 1.4 -2.3 76 11 32 16.1 101.39     LegendNANA
21:00 Legend Double Dagger 0.6 -1.0 89 10 35 16.1 101.39     Rain
22:00 Legend Double Dagger 1.2 -1.7 81 10 41 16.1 101.36     LegendNANA
23:00 Legend Double Dagger 1.1 -0.7 88 11 39 16.1 101.34     LegendNANA

Notes on Data Quality.

Legend

  • E = Estimated
  • M = Missing
  • NA = Not Available
  • ‡ = Partner data that is not subject to review by the National Climate Archives
Date modified: